Location: Earls Croome
(52.0667°N, 2.2000°W)
Time: 05:55:10
(UTC+00:00)

Cosmos 1934 Rocket - Pass Details

Date: 17 November 2019
Orbit: 938 x 999 km, 83.0° (Epoch: 12 December)

Event Time Altitude Azimuth Distance (km) Brightness Sun altitude
Exits shadow 04:36:31 60° 305° (NW) 1,136 4.0 -26.6°
Drops below altitude 10° 04:42:25 10° 5° (N) 2,783 6.4 -25.7°
Sets 04:45:00 0° 9° (N) 3,736 7.2 -25.3°
